Starlink 30820

operational
NORAD ID: 58190 Int'l Des: 2023-167 Owner: SPXS Country: US Constellation: starlink
LEOCIRCULAR

关于 Starlink 30820

正在加载描述...

实时位置

正在加载3D地球...

即将过境

高度历史

Altitude vs Time

uPlot chart will show altitude changes over time

两行轨道根数

1 58190U 23167R 25305.52890410 -.00000877 00000-0 -49887-4 0 9990
2 58190 43.0041 122.5674 0001383 249.7417 110.3277 15.02529542111675
Epoch: Nov 1, 2025 • Age: 24 hours

当前状态

高度 558.6 km
速度 7.58 km/s
星下点 7.68°N, 106.77°W
发射日期 Oct 30, 2023
运行时间 2 years
类型 internet

技术详情

分类 Payload
质量 730.00 kg
干质量 700.00 kg
总质量 730.00 kg
长度 0.30 m
直径 4.10 m
跨度 29.00 m
形状 Box + pan
制造商 SPXS
平台类型 Starlink V2M
阶段状态 In Orbit
所有者/国家 SPXS/US

大型星座

Loading constellations...